Regional Weather Roundup
Issued by NWS

Home | Current Version | Previous Version | Text Only | Print | Product List | Glossary On
Versions: 1 2 3 4 5 6 7 8 9 10 11 12 13 14 15 16 17 18 19 20 21 22 23 24 25 26 27 28 29 30 31 32 33 34 35 36 37 38 39 40 41 42 43 44 45 46 47 48 49 50
000
ASUS43 KFSD 232302
RWRSD

WEATHER ROUNDUP FOR SOUTH DAKOTA
NATIONAL WEATHER SERVICE SIOUX FALLS SD
600 PM CDT THU OCT 23 2014

NOTE: "FAIR" INDICATES FEW OR NO CLOUDS BELOW 12,000 FEET WITH NO
SIGNIFICANT WEATHER AND/OR OBSTRUCTIONS TO VISIBILITY.


SDZ001>005-009-010-012>017-240000-
NORTHWEST AND NORTH CENTRAL SOUTH DAKOTA

CITY           SKY/WX    TMP DP  RH WIND       PRES   REMARKS
BUFFALO          N/A     62  26  25 SW8       29.82S
FAITH            N/A     57  36  45 S6        29.88R
MOBRIDGE       PTCLDY    61  38  42 VRB3      29.84S
$$

SDZ012>016-024>037-041>051-057-063-072>074-240000-
SOUTHWEST AND SOUTH CENTRAL SOUTH DAKOTA

CITY           SKY/WX    TMP DP  RH WIND       PRES   REMARKS
RAPID CTY ARPT MOCLDY    61  37  41 N9        29.89R
PIERRE         MOCLDY    63  33  32 E5        29.84F
CUSTER         CLEAR     59  26  28 W10       29.99S
ELLSWORTH AFB  MOCLDY    64  36  34 N6        29.89R
PHILIP         CLOUDY    67  30  25 SW5       29.85F
PINE RIDGE     MOCLDY    66  35  31 SW6       29.91F
SPEARFISH      FAIR      59  32  36 N5        29.93S
WINNER         FAIR      70  34  26 S5        29.88F
$$

SDZ004>011-016>023-039-040-240000-
NORTHEAST SOUTH DAKOTA

CITY           SKY/WX    TMP DP  RH WIND       PRES   REMARKS
ABERDEEN       PTCLDY    60  44  55 S8        29.86S
WATERTOWN      CLEAR     59  45  59 S9        29.90F
SISSETON         N/A     63  37  38 SW6       29.87S
$$

SDZ017-020-022-023-036>040-048>070-240000-
SOUTHEAST SOUTH DAKOTA

CITY           SKY/WX    TMP DP  RH WIND       PRES   REMARKS
SIOUX FALLS    PTCLDY    62  46  55 S8        29.94F
HURON          PTCLDY    65  44  46 S5        29.88S
CHAMBERLAIN    MOCLDY    62  36  37 E3        29.88S
MITCHELL       CLEAR     68  39  34 SW5       29.91R
YANKTON        CLEAR     66  46  48 S8        29.94S
$$

ABBREVIATIONS USED IN REMARKS
   TC - TEMPERATURE IN CELSIUS
  WCI - WIND CHILL INDEX
   HX - HEAT INDEX
  VSB - VISIBILITY




USA.gov is the U.S. government's official web portal to all federal, state and local government web resources and services.